Погода Бологое

Погода Бологое : погода сейчас, прогноз погоды и архив. Всё, что Вы хотите узнать о погоде Бологое!

Поиск расширенной информации на нашем сайте:

Другие новости

Новости СМИ2

Главная страница сайта

Новости сайта

02.10.2013

Напоминаем, что на нашем новом сайте вы можете получить высокодетализированные прогнозы погоды по пунктам России, СНГ и мира (включающие важные для авиации метеовеличины, такие как направление и скорость ветра, видимость, явления погоды, количество и форма облачности, нижняя и верхняя граница облачности), а также ознакомиться с разнообразными материалами по авиационной метеорологии и подборкой полезных ссылок на эту тему.

Сайт Метеоцентр.Азия посвящён разработке технологий оптимизации авиаметеорологического обслуживания, включая проектирование и перспективное создание нескольких автоматизированных авиаметеорологических систем:
- система выпуска высокодетальных прогностических карт явлений погоды для нижнего воздушного пространства по России и ближнему зарубежью;
- система верификации прогнозов TAF (выпускаемых синоптиками официальных АМСГ РФ и ближнего зарубежья) и AUTOTAF (выпускаемых сайтом Метеоцентр.Азия) - выявление ошибок, онлайн-сопоставление с фактической погодой METAR, автоматическое внесение коррективов в прогнозы при резком отклонении фактической погоды от прогноза, подсчёт оправдываемости прогнозов по элементам и в целом;
- система обработки, анализа и отображения авиаметеорологической информации для применения провайдерами метеорологической информации.


Погода Бологое - сегодня

Время (UTC), дата Ветер
(°,м/с) 
Видим.   Явления Облачность Т
(°С)
Тd
(°С)
f(%) Тe
(°С)
Pmin
(гПа)
dP
(гПа)
Po
(мм)
O2
(г/м3)
Тmin Tmax R s Состояние
почвы
03 26.04.17 160 (Ю) 5-10{11}  10 км  в посл. час ливневой дождь  10/10 300 м 
[St]
+4.9 +1.9 81 +3  1003.2  -2.7  735  291  +4.9    0.8     
06 26.04.17 190 (Ю) 4{11}  4000 м  слаб. ливневой дождь  10/10 300 м кучево-дожд. 
[Cb cap]
+6.5 +3.1 79 +5  1003.3  0.2  736  289  +4.9      мокрая 
09 26.04.17 230 (ЮЗ) 4000 м  слаб. дождь{ливн. осадки}  10/10 300 м 
[Frnb|Ns]
+4.3 +2.6 89 +3  1005.7  2.2  737  292           
12 26.04.17 200 (Ю) 10 км  {ливн. осадки, дождь}  10/8 300 м средняя 
[St|Ac cast]
+5.2 +0.8 73 +4  1006.5  0.9  738  292           
15 26.04.17 220 (ЮЗ) 4{10}  10 км    9/6 600 м средняя 
[Sc|Ac cast]
+5.4 +0.9 73 +4  1007.3  0.8  738  292         
18 26.04.17 200 (Ю) 4{10}  10 км    8/0 средняя, верхняя 
[Ac cast|Ci fib]
+4.4 +0.8 77 +3  1008.3  739  293    +6.5     
21 26.04.17 210 (ЮЗ) 10 км    9/9 300 м 
[St]
+3.8 +1.1 83 +3  1010  1.6  740  294           
00 27.04.17 200 (Ю) 10 км    ясно 
+2.2 +0.7 90 +2  1011.3  1.2  741  296           
03 27.04.17 200 (Ю) 4000 м  дымка  8/0 средняя 
[Ac cast]
+1 +0.2 94 1012.4  742  298  +0.6         
06 27.04.17 220 (ЮЗ) 10 км    8/0 средняя, верхняя 
[Ac cast|Ci fib]
+4.4 -1 68 +3  1012.9  0.8  743  295  +0.6        мокрая 
09 27.04.17 230 (ЮЗ) 20000 м    9/9 600 м 
[Sc]
+6.5 -2.8 51 +6  1013.3  0.5  743  293           
12 27.04.17 250 (З) 20000 м    9/9 600 м 
[Sc]
+7.3 -3 48 +7  1013.6  0.4  743  292           
15 27.04.17 240 (ЮЗ) 20000 м    9/3 300 м средняя 
[St|As trans]
+7.5 -3.7 45 +7  1014.1  0.5  743  292           
18 27.04.17 200 (Ю) 10 км    9/3 600 м средняя 
[Sc|Ac As]
+5.3 +0.8 73 +5  1015.7  1.4  745  294    +8       
21 27.04.17 тихо ()   4000 м  дымка  ясно 
+1.3 +0 91 +1  1016.9  0.8  745  299           
00 28.04.17 190 (Ю) 4000 м  дымка  ясно 
+1 +0.2 94 +2  1018.1  1.1  746  299           
03 28.04.17 230 (ЮЗ) 4000 м  дымка  8/0 средняя 
[Ac cast]
+1 +0.3 95 +2  1020.1  748  300  +0.2         
06 28.04.17 тихо ()   20000 м    ясно 
+8.5 -0.7 52 +9  1020.5  748  292  +0.2        мокрая 
09 28.04.17 220 (ЮЗ) 20000 м    5/3 600 м верхняя 
[Cu med, cong|Ci fib]
+11.3 -7.2 27 +12  1021.3  0.9  749  290           
12 28.04.17 070 (В) 20000 м    9/3 600 м средняя, верхняя 
[Cu med, cong|Ac cast|Ci fib]
+12.2 -6.8 26 +13  1021.4  0.2  749  290           
15 28.04.17 100 (В) 20000 м    10/10 600 м 
[Ac As]
+11 -6.1 30 +11  1021.4  -0.1  749  291           
18 28.04.17 080 (В) 20000 м    10/10 300 м 
[St]
+8.4 -1.3 50 +8  1022.2  0.6  749  293    +12.9       
21 28.04.17 060 (СВ) 4000 м  слаб. дождь  10/10 300 м 
[Frnb|Ns]
+4.9 +2.3 83 +3  1021.8  -0.6  749  296           
00 29.04.17 070 (В) 5-10{12}  4000 м  слаб. дождь  10/10 300 м 
[Frnb|Ns]
+3 +2 93 +1  1020.5  -1.4  748  298           
03 29.04.17 080 (В) 4{12}  4000 м  слаб. дождь  10/10 300 м 
[Frnb|Ns]
+2.8 +1.7 92 +1  1018.6  -1.9  747  297  +1.9    13     
Время (UTC), дата Ветер
(°,м/с) 
Видим.   Явления Облачность Т
(°С)
Тd
(°С)
f(%) Тe
(°С)
Pmin
(гПа)
dP
(гПа)
Po
(мм)
O2
(г/м3)
Тmin Tmax R s Состояние
почвы

Для получения пояснительной информации подведите курсор к названию столбца.

ПОГОДА Бологое - архив

Всё, что Вы хотите узнать о погоде Бологое - удобно и подробно!

Выберите нужную дату (начиная с 1 января 2015* года) и нажмите кнопку "Найти".
Будут отображены архивные сводки погоды по пункту Бологое, начиная с указанной даты.


Отображать данные в формате CSV (для использования в таблицах Excel)


Внимание! Наш архив погоды предназначен исключительно для личного некоммерческого использования в познавательных целях. Если Вам необходимы официальные справки о состоянии погоды (для производственных, юридических, коммерческих и т.п. целей), обращайтесь в органы Росгидромета.

*Примечание: данная дата относится к архиву по метеостанциям СССР (Россия, СНГ, Балтия).
Архив по метеостанциям Зарубежной Европы и Азии (кроме Китая) хранится 10 дней, по другим регионам земного шара (Китай, Африка, Америка, Австралия, Океания) - 1 день.

Бологое - район местоположения метеостанции


Название, широта, долгота, высота метеостанции:
Бологое 57.9°ш. 34.1°д. 188 м над ур. моря [Российская Федерация]

Дополнительная информация

В oтличие oт бoльшинства пoгoдных сайтoв мы публикуем пoдрoбную метеoинфoрмацию в детальнoм прoфессиoнальнoм фoрмате.

Характеристики температуры и влажнoсти вoздуха измеряются на высoте 2 м в тени вдали oт зданий и деревьев.
Скoрoсть ветра измеряется на высoте 10 м (на урoвне рoста челoвека скoрoсть ветра ниже в 1.5-2 раза). Если метеoстанция нахoдится в гoрoде или в лесу, тo скoрoсть ветра занижена на 2-4 м/с пo сравнению с oткрытым местoм. Скoрoсть ветра над акватoриями крупных рек и oзёр, а также на вершинах хoлмoв на 2-5 м/с выше, чем в oбычных услoвиях.
Атмoсфернoе давление в разных тoчках местнoсти мoжет значительнo oтличаться oт давления на метеoстанции, в зависимoсти oт услoвий рельефа (при пoдъёме на 10 м давление пoнижается примернo на 1 мм рт.ст.).